Stations météo

Publicité
Split/Marjan, Croatie (14445): Température de l'air & dewpoint: 12.01.2018 06:00:00 - 18.01.2018 06:00:00 (CET)Split/Marjan, Croatie (14445): water temperature: 12.01.2018 06:00:00 - 18.01.2018 06:00:00 (CET)Split/Marjan, Croatie (14445): Vitesse du vent & gusts: 12.01.2018 06:00:00 - 18.01.2018 06:00:00 (CET)Split/Marjan, Croatie (14445): Direction du vent: 12.01.2018 06:00:00 - 18.01.2018 06:00:00 (CET)Split/Marjan, Croatie (14445): reduced air pressure: 12.01.2018 06:00:00 - 18.01.2018 06:00:00 (CET)Split/Marjan, Croatie (14445): visibility: 12.01.2018 06:00:00 - 18.01.2018 06:00:00 (CET)
Date & Time tt [°C] td [°C] tw [°C] ff [km/h] ff [knt] fx [km/h] fx [knt] dd ppp [hPa] vv [km]
18.01.2018 06:00:00 5,8 -7,0 - 22 12 - - NNW 1014,6 20
18.01.2018 05:00:00 6,6 -7,6 - 18 10 - - N 1013,8 20
18.01.2018 04:00:00 5,4 -4,6 - 11 6 - - NNW 1013,4 20
18.01.2018 03:00:00 - - - - - - - - - -
18.01.2018 02:00:00 - - - - - - - - - -
18.01.2018 01:00:00 6,4 -4,5 - 25 14 - - NNW 1011,3 20
18.01.2018 00:00:00 - - - - - - - - - -
17.01.2018 23:00:00 - - - - - - - - - -
17.01.2018 22:00:00 8,0 -6,3 - 14 8 - - NNW 1007,6 20
17.01.2018 21:00:00 7,2 -1,6 - 29 16 65 35 NNW 1007,0 20
17.01.2018 20:00:00 7,4 -1,1 - 14 8 - - N 1005,4 20
17.01.2018 19:00:00 7,4 0,6 - 18 10 - - NNW 1002,7 20
17.01.2018 18:00:00 - - - - - - - - - -
17.01.2018 17:00:00 - - - - - - - - - -
17.01.2018 16:00:00 8,0 2,4 - 32 18 - - ENE 998,7 8
17.01.2018 15:00:00 9,9 6,8 - 11 6 - - NW 997,0 40
17.01.2018 14:00:00 9,4 6,1 - 14 8 - - WNW 997,0 40
17.01.2018 13:00:00 8,8 5,6 12,5 29 16 - - NNW 996,7 20
17.01.2018 12:00:00 11,9 10,5 - 11 6 - - NNW 995,8 15
17.01.2018 11:00:00 11,2 10,1 - 7 4 - - SE 997,2 20
17.01.2018 10:00:00 10,9 9,6 - 18 10 - - SSE 998,0 20
17.01.2018 09:00:00 10,8 9,5 - 14 8 - - N 998,8 30
17.01.2018 08:00:00 11,0 9,5 - 32 18 - - SSE 999,7 8
17.01.2018 07:00:00 11,4 9,2 12,5 32 18 - - SE 1000,6 20
17.01.2018 06:00:00 11,8 9,2 - 36 19 61 33 SE 1001,3 20
17.01.2018 05:00:00 11,8 8,9 - 32 18 54 29 SSE 1001,9 20
17.01.2018 04:00:00 11,6 9,2 - 32 18 - - SE 1003,2 20
17.01.2018 03:00:00 - - - - - - - - - -
17.01.2018 02:00:00 - - - - - - - - - -
17.01.2018 01:00:00 11,2 8,6 - 18 10 - - ESE 1006,8 20
17.01.2018 00:00:00 - - - - - - - - - -
16.01.2018 23:00:00 - - - - - - - - - -
16.01.2018 22:00:00 10,2 8,3 - 22 12 - - ESE 1008,5 20
16.01.2018 21:00:00 10,2 7,9 - 25 14 - - ESE 1008,7 20
16.01.2018 20:00:00 11,0 7,6 - 22 12 - - SE 1009,0 20
16.01.2018 19:00:00 11,0 7,2 - 25 14 - - SE 1009,0 20
16.01.2018 18:00:00 - - - - - - - - - -
16.01.2018 17:00:00 - - - - - - - - - -
16.01.2018 16:00:00 10,7 7,5 - 29 16 - - ESE 1010,2 30
16.01.2018 15:00:00 10,6 7,7 - 22 12 - - SE 1010,7 30
16.01.2018 14:00:00 10,6 8,1 - 22 12 - - SSE 1011,2 25
16.01.2018 13:00:00 10,3 7,8 12,6 22 12 - - SSE 1011,9 30
16.01.2018 12:00:00 10,2 7,5 - 29 16 - - SE 1012,6 30
16.01.2018 11:00:00 10,1 7,8 - 25 14 - - SE 1013,9 35
16.01.2018 10:00:00 9,6 7,9 - 22 12 - - SSE 1014,3 30
16.01.2018 09:00:00 9,3 7,9 - 14 8 - - SSE 1014,6 25
16.01.2018 08:00:00 8,0 6,4 - 11 6 - - N 1015,2 10
16.01.2018 07:00:00 8,7 6,1 13,0 18 10 - - NE 1015,1 25
16.01.2018 06:00:00 8,9 5,9 - 22 12 - - SE 1015,5 20
16.01.2018 05:00:00 8,7 5,7 - 22 12 - - SE 1016,2 20
16.01.2018 04:00:00 8,8 5,6 - 29 16 - - SSE 1017,3 20
16.01.2018 03:00:00 - - - - - - - - - -
16.01.2018 02:00:00 - - - - - - - - - -
16.01.2018 01:00:00 8,4 5,3 - 11 6 - - SE 1019,4 20
16.01.2018 00:00:00 - - - - - - - - - -
15.01.2018 23:00:00 - - - - - - - - - -
15.01.2018 22:00:00 8,1 4,3 - 7 4 - - ESE 1020,6 20
15.01.2018 21:00:00 8,0 4,0 - 7 4 - - E 1020,7 20
15.01.2018 20:00:00 8,0 4,9 - 11 6 - - ENE 1020,8 20
15.01.2018 19:00:00 8,0 4,5 - 7 4 - - ENE 1021,2 20
15.01.2018 18:00:00 - - - - - - - - - -
15.01.2018 17:00:00 - - - - - - - - - -
15.01.2018 16:00:00 9,7 5,9 - 7 4 - - SSE 1020,5 40
15.01.2018 15:00:00 10,2 5,4 - 7 4 - - S 1020,8 40
15.01.2018 14:00:00 10,0 4,0 - 4 2 - - NNW 1021,0 30
15.01.2018 13:00:00 9,1 3,9 13,5 4 2 - - NE 1021,6 25
15.01.2018 12:00:00 8,6 3,0 - 4 2 - - NNW 1022,6 30
15.01.2018 11:00:00 8,2 2,1 - 11 6 - - ENE 1022,7 40
15.01.2018 10:00:00 7,3 1,5 - 11 6 - - ENE 1022,7 40
15.01.2018 09:00:00 7,1 0,4 - 11 6 - - ENE 1022,7 40
15.01.2018 08:00:00 6,8 0,3 - 14 8 - - ENE 1022,5 40
15.01.2018 07:00:00 6,5 0,2 13,0 11 6 - - ENE 1022,5 20
15.01.2018 06:00:00 6,4 0,4 - 14 8 - - ENE 1022,1 20
15.01.2018 05:00:00 6,3 0,3 - 14 8 - - ENE 1022,3 20
15.01.2018 04:00:00 6,3 0,3 - 14 8 - - ENE 1022,6 20
15.01.2018 03:00:00 - - - - - - - - - -
15.01.2018 02:00:00 - - - - - - - - - -
15.01.2018 01:00:00 6,5 0,8 - 14 8 - - ENE 1022,7 20
15.01.2018 00:00:00 - - - - - - - - - -
14.01.2018 23:00:00 - - - - - - - - - -
14.01.2018 22:00:00 7,6 1,3 - 11 6 - - N 1022,4 20
14.01.2018 21:00:00 7,9 1,2 - 7 4 - - ENE 1021,9 20
14.01.2018 20:00:00 7,9 2,0 - 18 10 - - ENE 1021,4 20
14.01.2018 19:00:00 8,4 2,1 - 11 6 - - ENE 1021,4 20
14.01.2018 18:00:00 - - - - - - - - - -
14.01.2018 17:00:00 - - - - - - - - - -
14.01.2018 16:00:00 9,9 1,6 - 4 2 - - N 1020,3 25
14.01.2018 15:00:00 10,0 1,5 - 0 0 - - N 1019,8 25
14.01.2018 14:00:00 9,9 1,4 - 7 4 - - ENE 1019,6 25
14.01.2018 13:00:00 10,3 0,8 13,2 7 4 - - ENE 1019,5 25
14.01.2018 12:00:00 9,7 0,8 - 7 4 - - ENE 1019,8 25
14.01.2018 11:00:00 9,3 0,8 - 11 6 - - ENE 1020,0 25
14.01.2018 10:00:00 9,0 -0,4 - 14 8 - - ENE 1019,7 25
14.01.2018 09:00:00 8,6 -0,7 - 18 10 - - ENE 1019,1 25
14.01.2018 08:00:00 8,6 -1,0 - 18 10 - - ENE 1018,7 35
14.01.2018 07:00:00 8,5 -0,8 13,8 22 12 - - ENE 1018,3 20
14.01.2018 06:00:00 8,6 -1,3 - 18 10 - - ENE 1018,1 20
14.01.2018 05:00:00 8,5 -1,1 - 18 10 - - ENE 1017,9 20
14.01.2018 04:00:00 8,4 -1,2 - 18 10 - - ENE 1017,9 20
14.01.2018 03:00:00 - - - - - - - - - -
14.01.2018 02:00:00 - - - - - - - - - -
14.01.2018 01:00:00 8,7 -1,1 - 22 12 - - ENE 1017,8 20
14.01.2018 00:00:00 - - - - - - - - - -
13.01.2018 23:00:00 - - - - - - - - - -
13.01.2018 22:00:00 8,8 -0,7 - 25 14 - - ENE 1017,9 20
13.01.2018 21:00:00 9,1 -0,9 - 29 16 - - ENE 1017,8 20
13.01.2018 20:00:00 9,3 -0,9 - 25 14 - - ENE 1017,6 20
13.01.2018 19:00:00 9,9 -0,9 - 22 12 - - NE 1017,3 20
13.01.2018 18:00:00 - - - - - - - - - -
13.01.2018 17:00:00 - - - - - - - - - -
13.01.2018 16:00:00 12,2 1,0 - 4 2 - - SW 1016,1 40
13.01.2018 15:00:00 13,2 1,6 - 11 6 - - WSW 1015,7 40
13.01.2018 14:00:00 13,2 1,0 14,0 11 6 - - WSW 1015,7 40
13.01.2018 13:00:00 12,9 0,8 14,0 11 6 - - WSW 1016,1 40
13.01.2018 12:00:00 12,5 -0,1 - 7 4 - - WSW 1016,7 40
13.01.2018 11:00:00 11,8 0,4 - 7 4 - - SSW 1017,0 40
13.01.2018 10:00:00 11,0 -0,2 - 18 10 - - ENE 1017,0 40
13.01.2018 09:00:00 9,8 -0,7 - 14 8 - - NE 1016,8 40
13.01.2018 08:00:00 9,0 -1,3 - 25 14 - - NE 1016,6 35
13.01.2018 07:00:00 9,1 -1,5 13,2 29 16 - - NE 1016,6 35
13.01.2018 06:00:00 9,0 -1,0 - 29 16 - - NE 1016,6 20
13.01.2018 05:00:00 9,1 -0,8 - 29 16 - - NE 1016,6 20
13.01.2018 04:00:00 9,2 -0,4 - 36 19 - - NE 1016,6 20
13.01.2018 03:00:00 - - - - - - - - - -
13.01.2018 02:00:00 - - - - - - - - - -
13.01.2018 01:00:00 9,3 -0,6 - 36 19 - - ENE 1017,0 20
13.01.2018 00:00:00 - - - - - - - - - -
12.01.2018 23:00:00 - - - - - - - - - -
12.01.2018 22:00:00 9,6 -1,0 - 32 18 - - ENE 1017,2 20
12.01.2018 21:00:00 9,3 -0,6 - 32 18 58 31 ENE 1016,8 20
12.01.2018 20:00:00 9,8 -0,7 - 36 19 58 31 NE 1016,5 20
12.01.2018 19:00:00 10,1 -0,9 - 36 19 - - NE 1016,4 20
12.01.2018 18:00:00 - - - - - - - - - -
12.01.2018 17:00:00 - - - - - - - - - -
12.01.2018 16:00:00 11,6 -0,8 - 36 19 - - NE 1015,2 30
12.01.2018 15:00:00 12,2 -1,1 - 29 16 - - NE 1014,9 40
12.01.2018 14:00:00 12,6 -0,2 - 22 12 - - NE 1014,7 40
12.01.2018 13:00:00 13,2 0,4 13,4 11 6 - - ENE 1015,1 40
12.01.2018 12:00:00 12,7 0,5 - 4 2 - - SW 1015,6 40
12.01.2018 11:00:00 11,8 -0,5 - 22 12 - - ENE 1015,7 45
12.01.2018 10:00:00 11,0 -0,2 - 25 14 - - ENE 1015,3 35
12.01.2018 09:00:00 10,0 -0,2 - 29 16 - - ENE 1014,9 35
12.01.2018 08:00:00 9,6 -0,7 - 36 19 - - ENE 1013,7 45
12.01.2018 07:00:00 9,7 0,0 14,0 32 18 - - ENE 1013,8 30
12.01.2018 06:00:00 10,1 0,6 - 25 14 - - ENE 1013,8 20

tt = Température de l'air
td = dewpoint
tw = water temperature
ff = Vitesse du vent
fx = gusts
dd = Direction du vent
ppp = reduced air pressure
vv = visibility

stations d'obs. à proximité